Home   Weather   Melbourne   Past weeks
Flag for Australia

Past Weather in Melbourne, Victoria, Australia — Yesterday and Last 2 Weeks

Now
54 °F

Partly cloudy.


Feels Like: 52 °F
Forecast: 59 / 48 °F
Wind: 7 mph from Northwest

Location: Melbourne Airport

Current Time: May 25, 2019 at 9:25:56 pm

Latest Report: May 25, 2019 at 9:00 pm


Visibility: N/A

Pressure: 29.89 "Hg

Humidity: 94%

Dew Point: 52 °F

Location of MelbourneLocation

Past Weather in Melbourne — Graph

°F

Melbourne Temperature Yesterday

Maximum temperature yesterday: 66 °F (at 3:00 pm)
Minimum temperature yesterday: 55 °F (at 11:00 am)
Average temperature yesterday: 60 °F

High & Low Weather Summary for the Past Weeks

 TemperatureHumidityPressure
High72 °F (May 18, 3:00 pm)100% (May 18, 2:30 am)30.48 "Hg (May 18, 2:30 am)
Low41 °F (May 18, 2:30 am)27% (May 18, 2:00 pm)29.83 "Hg (May 25, 3:00 pm)
Average56 °F69%30.25 "Hg
* Reported May 10 8:00 pm — May 25 8:22 pm, Melbourne. Weather by CustomWeather, © 2019

Note: Actual official high and low records may vary slightly from our data, if they occured in-between our weather recording intervals... More about our weather records

Advertising

Melbourne Weather History for the Previous 24 Hours

Scroll right to see more
 ConditionsComfort  
Time TempWeatherWind HumidityBarometerVisibility
8:22 pm
Sat, May 25
54 °FSprinkles. Partly cloudy.8 mph94%29.89 "HgN/A
8:00 pm55 °FRain showers. Passing clouds.10 mph88%29.89 "Hg3 mi
7:30 pm55 °FSprinkles. Passing clouds.12 mph88%29.86 "HgN/A
7:00 pm54 °FScattered showers. Passing clouds.6 mph88%29.86 "HgN/A
6:30 pm55 °FScattered showers. Partly cloudy.10 mph82%29.86 "HgN/A
6:11 pm54 °FSprinkles. Partly cloudy.18 mph88%29.86 "Hg4 mi
6:00 pm54 °FRain showers. Passing clouds.17 mph88%29.86 "Hg3 mi
5:30 pm63 °FScattered showers. Partly cloudy.12 mph56%29.83 "HgN/A
5:00 pm63 °FPartly sunny.15 mph56%29.83 "HgN/A
4:30 pm64 °FPartly sunny.15 mph52%29.83 "HgN/A
4:00 pm64 °FPartly sunny.14 mph52%29.83 "HgN/A
3:30 pm64 °FPartly sunny.18 mph49%29.83 "HgN/A
3:00 pm64 °FBroken clouds.16 mph49%29.83 "HgN/A
2:30 pm64 °FBroken clouds.18 mph49%29.86 "HgN/A
2:14 pm64 °FBroken clouds.21 mph49%29.86 "HgN/A
2:00 pm64 °FBroken clouds.17 mph49%29.86 "HgN/A
1:30 pm64 °FPartly sunny.22 mph49%29.86 "HgN/A
1:14 pm64 °FPartly sunny.18 mph46%29.86 "HgN/A
1:00 pm64 °FPartly sunny.18 mph46%29.86 "HgN/A
12:30 pm64 °FPartly sunny.17 mph46%29.89 "HgN/A
12:00 pm64 °FPartly sunny.17 mph46%29.89 "HgN/A
11:30 am64 °FPartly sunny.18 mph49%29.89 "HgN/A
11:00 am64 °FPartly sunny.16 mph49%29.92 "HgN/A
10:00 am61 °FPartly sunny.13 mph59%29.92 "HgN/A
9:30 am61 °FPartly sunny.13 mph59%29.95 "HgN/A
9:00 am57 °FPartly sunny.6 mph72%29.95 "HgN/A
8:30 am57 °FPartly sunny.8 mph72%29.95 "HgN/A
8:00 am54 °FPartly sunny.15 mph88%29.92 "HgN/A
7:30 am54 °FSunny.17 mph88%29.92 "Hg10 mi
7:00 am54 °FClear.15 mph88%29.92 "Hg10 mi
6:30 am54 °FClear.15 mph88%29.92 "Hg10 mi
6:00 am54 °FClear.15 mph88%29.92 "Hg10 mi
5:30 am54 °FClear.17 mph88%29.92 "Hg10 mi
5:00 am55 °FClear.12 mph82%29.92 "Hg10 mi
4:30 am55 °FClear.8 mph82%29.92 "Hg10 mi
4:00 am57 °FClear.12 mph77%29.92 "Hg10 mi
3:30 am57 °FClear.14 mph77%29.92 "Hg10 mi
3:00 am57 °FClear.14 mph77%29.95 "Hg10 mi
2:30 am57 °FClear.17 mph77%29.95 "Hg10 mi
2:00 am57 °FClear.17 mph77%29.95 "Hg10 mi
1:30 am57 °FClear.14 mph77%29.95 "Hg10 mi
1:00 am57 °FClear.14 mph77%29.95 "Hg10 mi
12:30 am57 °FClear.16 mph77%29.95 "Hg10 mi
12:00 am57 °FClear.16 mph77%29.95 "Hg10 mi
11:30 pm
Fri, May 24
59 °FClear.17 mph68%29.98 "Hg10 mi
11:00 pm59 °FClear.17 mph68%29.98 "Hg10 mi
10:30 pm59 °FClear.20 mph68%29.98 "Hg10 mi
10:00 pm59 °FClear.24 mph68%29.98 "Hg10 mi
9:30 pm59 °FClear.24 mph63%29.98 "Hg10 mi
9:00 pm59 °FClear.29 mph63%29.95 "Hg10 mi
Weather by CustomWeather, © 2019

See weather overview